User: anonymous   Login
Location: Lussas
(44.6119°N, 4.4726°E)
Time: 04:42:28
(UTC+00:00)
Language:

STARLINK-1474 - Orbit

View from above orbital plane
View from above orbital plane
View from above satellite
View from above satellite

Ground track
Ground track

The orbit data is extracted from the following two-line orbital elements,

1 45738C 20038J   21165.83700960 -.00003664  00000-0 -24561-3 0  1655
2 45738  53.0547  77.7522 0001583  87.7084 196.1643 15.06389530    15
Epoch (UTC): 14 June 2021 20:05:17
Eccentricity: 0.0001583
inclination: 53.0547°
perigee height: 546 km
apogee height: 548 km
right ascension of ascending node: 77.7522°
argument of perigee: 87.7084°
revolutions per day: 15.06389530
mean anomaly at epoch: 196.1643°
orbit number at epoch: 1

The dashed part of the orbit path shows where the satellite is in the earth's shadow,  

DLR